Weather History for Rome, GA

Change the Weather History Date:

Thursday, March 6, 2014

  Actual Average Record
Temperature  
Mean Temperature 43 °F -  
Max Temperature 49 °F 61 °F - (0)
Min Temperature 36 °F 37 °F - (0)
Degree Days  
Heating Degree Days 22    
Month to date heating degree days 111  
Moisture  
Dew Point 31 °F    
Average Humidity 65    
Maximum Humidity 100    
Minimum Humidity 29    
Precipitation  
Precipitation 0.38 in - - ()
Month to date precipitation 1.07  
Year to date precipitation 8.75  
Sea Level Pressure  
Sea Level Pressure 30.08 in    
Wind  
Wind Speed 5 mph (East)    
Max Wind Speed 17 mph    
Max Gust Speed 24 mph    
Visibility 9 miles    
Events Rain    
T = Trace of Precipitation, MM = Missing Value Source: NWS Daily Summary

Daily Weather History Graph

Daily Weather History Graph

Search for Another Location

Airport:

Trip Planner

Search our weather history database for the weather conditions in past years. The results will help you decide how hot, cold, wet, or windy it might be!

Date:

Astronomy

Mar. 06, 2014 Rise Set
Actual Time 7:03 AM EST 6:41 PM EST
Civil Twilight 6:38 AM EST 7:06 PM EST
Nautical Twilight 6:09 AM EST 7:35 PM EST
Astronomical Twilight 5:39 AM EST 8:04 PM EST
Moon 10:25 AM EST (3/6) No Moon Set
Length of Visible Light 12h 28m
Length of Day
11h 37m
Waxing Crescent, 32% of the Moon is Illuminated
Mar 6
Waxing Crescent
Mar 8
First Quarter
Mar 16
Full
Mar 23
Last Quarter
Mar 30
New

Hourly Weather History & Observations

Time (EST) Temp. Windchill Dew Point Humidity Pressure Visibility Wind Dir Wind Speed Gust Speed Precip Events Conditions
12:53 AM 37.0 °F - 35.1 °F 93% 30.12 in 10.0 mi Calm Calm - N/A   Clear
1:53 AM 36.0 °F - 36.0 °F 100% 30.12 in 10.0 mi Calm Calm - N/A   Clear
2:53 AM 37.0 °F - 35.1 °F 93% 30.12 in 10.0 mi Calm Calm - N/A   Clear
3:53 AM 37.0 °F 34.5 °F 35.1 °F 93% 30.09 in 10.0 mi North 3.5 mph - N/A   Clear
4:53 AM 39.0 °F - 36.0 °F 89% 30.10 in 10.0 mi Calm Calm - N/A   Clear
5:53 AM 39.0 °F - 35.1 °F 86% 30.10 in 10.0 mi Calm Calm - N/A   Clear
6:53 AM 41.0 °F 39.0 °F 32.0 °F 70% 30.12 in 10.0 mi East 3.5 mph - N/A   Clear
7:53 AM 42.1 °F 37.7 °F 30.0 °F 62% 30.12 in 10.0 mi East 6.9 mph - N/A   Mostly Cloudy
8:53 AM 43.0 °F 40.3 °F 28.9 °F 58% 30.15 in 10.0 mi East 4.6 mph - N/A   Overcast
9:53 AM 44.1 °F 39.5 °F 21.0 °F 40% 30.17 in 10.0 mi SE 8.1 mph 23.0 mph N/A   Overcast
10:53 AM 45.0 °F 39.3 °F 19.9 °F 37% 30.12 in 10.0 mi East 11.5 mph - N/A   Overcast
11:53 AM 45.0 °F 40.6 °F 18.0 °F 34% 30.13 in 10.0 mi East 8.1 mph 18.4 mph N/A   Overcast
12:53 PM 48.0 °F - 18.0 °F 30% 30.09 in 10.0 mi East 16.1 mph 23.0 mph N/A   Overcast
1:53 PM 48.9 °F - 19.0 °F 31% 30.06 in 10.0 mi East 11.5 mph - N/A   Overcast
2:53 PM 44.1 °F 40.1 °F 28.9 °F 55% 30.06 in 10.0 mi South 6.9 mph - 0.01 in Rain Light Rain
3:53 PM 37.0 °F 29.3 °F 34.0 °F 89% 30.07 in 4.0 mi SE 11.5 mph 17.3 mph 0.09 in Rain Rain
4:53 PM 37.0 °F 34.5 °F 35.1 °F 93% 30.06 in 7.0 mi ESE 3.5 mph - 0.14 in   Overcast
5:53 PM 37.9 °F 35.5 °F 36.0 °F 93% 30.04 in 7.0 mi NE 3.5 mph - 0.05 in Rain Light Rain
6:53 PM 37.9 °F 34.4 °F 36.0 °F 93% 30.03 in 9.0 mi NNW 4.6 mph - 0.01 in Rain Light Rain
7:53 PM 37.9 °F 35.5 °F 37.0 °F 97% 30.02 in 6.0 mi NW 3.5 mph - 0.02 in Rain Light Rain
8:53 PM 37.9 °F - 37.0 °F 97% 30.01 in 7.0 mi Calm Calm - 0.03 in Rain Light Rain
9:53 PM 37.9 °F - 37.9 °F 100% 30.02 in 5.0 mi Calm Calm - 0.02 in   Overcast
10:53 PM 39.0 °F - 37.9 °F 96% 30.02 in 5.0 mi Calm Calm - 0.00 in Rain Light Rain
11:53 PM 39.0 °F - 37.9 °F 96% 30.00 in 7.0 mi Calm Calm - 0.01 in   Overcast